EHI
0 0 0 0 0 0 0 0 0 0 0 0 0 0 0 0 0 0 1 2 5 6 6 5 4 3 3 3 4 4 4 3 2 2 3 3 3 3 2 1 0 0 0
0 0 0 0 0 0 0 0 0 0 0 0 0 0 0 0 0 0 0 1 4 6 6 5 5 4 4 4 4 3 3 3 1 1 1 1 2 2 2 1 0 0 0
0 0 0 0 0 0 0 0 0 0 0 0 0 0 0 0 0 0 0 0 1 3 5 7 6 5 5 6 4 3 2 1 0 0 0 0 1 1 1 1 0 0 0
0 1 1 1 0 0 0 0 0 0 0 0 0 0 0 0 0 0 0 0 0 1 3 6 8 7 6 6 5 3 2 1 1 0 0 0 0 0 0 0 0 0 0
0 1 2 1 0 0 0 1 1 1 0 0 0 0 0 0 0 0 0 0 0 0 1 3 6 6 7 7 5 3 3 3 2 1 0 0 0 0 0 0 0 0 0
2 2 3 2 0 1 1 2 2 1 0 0 0 0 0 0 0 0 0 0 0 0 0 1 2 4 6 7 5 3 3 4 4 2 0 0 0 0 0 0 0 0 0
3 3 3 2 2 2 3 3 2 1 0 0 0 0 0 0 0 0 0 1 0 0 0 0 0 1 3 5 5 4 3 3 4 4 3 2 2 1 0 0 0 0 0
2 3 4 3 3 3 3 3 3 1 0 0 0 0 0 0 0 0 0 0 0 1 1 1 0 0 1 1 2 2 3 2 4 5 5 4 4 3 1 0 0 0 0
1 2 4 4 4 4 3 3 3 3 1 0 0 0 0 0 0 0 0 0 0 1 1 1 0 0 0 0 0 1 2 2 3 4 5 4 3 2 0 0 0 0 0
1 2 4 4 4 5 4 3 4 4 2 0 0 0 0 0 0 0 0 0 0 0 0 0 0 0 0 0 0 1 1 1 1 2 3 3 2 1 0 0 0 0 0
3 3 4 4 4 4 3 3 3 3 1 0 0 0 0 0 0 0 0 0 0 0 0 0 0 0 0 0 0 1 1 1 0 1 2 2 2 1 0 0 0 0 0
5 5 5 4 4 3 3 2 1 1 0 0 0 0 0 0 0 0 0 0 0 0 0 0 0 0 0 0 0 1 1 1 0 0 0 1 1 0 0 0 0 0 0
7 6 6 5 4 3 2 1 0 0 0 0 0 0 0 0 0 0 0 0 0 0 0 0 0 0 0 0 0 0 0 0 0 0 0 0 0 0 0 0 0 0 0
5 5 5 5 5 3 1 1 1 0 0 0 0 0 0 0 0 0 0 0 0 0 0 0 0 0 0 0 0 0 0 0 0 0 0 0 0 0 0 0 0 0 0
2 3 3 5 5 4 2 2 1 0 0 0 0 0 0 0 0 0 0 0 0 0 0 0 0 0 0 0 0 0 0 0 0 0 0 0 0 0 0 0 0 0 0
2 2 3 4 5 3 2 2 1 0 0 0 0 0 0 0 0 0 0 0 0 0 0 0 0 0 0 0 0 0 0 0 0 0 0 0 0 0 0 0 0 0 0
1 2 3 4 3 1 1 1 0 0 0 0 0 0 0 0 0 0 0 0 0 0 0 0 0 0 0 0 0 0 0 0 0 0 0 0 0 0 0 0 0 0 0
2 2 3 3 1 0 0 0 0 0 0 0 0 0 0 0 0 0 0 0 0 0 0 0 0 0 0 0 0 0 0 0 0 0 0 0 0 0 0 0 0 0 0
3 3 3 2 1 0 0 0 0 0 0 0 0 0 0 0 0 0 1 1 0 0 1 1 0 0 0 0 0 0 0 0 0 0 0 0 0 0 0 0 0 0 0
5 4 3 2 1 1 1 0 0 0 0 0 0 0 0 0 0 0 1 1 2 2 2 1 0 0 0 0 0 0 0 0 0 0 0 0 0 0 0 0 0 0 0
6 5 3 3 2 2 2 1 1 1 0 0 0 0 0 0 0 0 0 2 3 3 3 2 1 1 0 0 0 0 0 0 0 0 0 0 0 0 0 0 0 0 0
9 7 5 4 3 3 3 2 2 2 1 0 0 0 0 1 1 1 1 1 2 3 3 3 2 1 0 0 0 0 0 0 0 0 0 0 0 0 0 0 0 0 0
13 11 9 6 4 3 3 1 1 2 1 0 0 0 1 2 3 3 2 1 1 1 2 2 2 1 0 0 0 0 0 0 0 0 0 0 0 0 0 0 0 0 0
16 15 12 8 5 4 2 1 0 1 1 0 0 1 2 4 4 3 2 1 0 0 1 1 1 0 0 1 0 0 0 1 1 1 1 1 1 0 0 0 0 0 0
21 19 14 9 6 5 3 1 0 0 0 0 0 1 3 4 3 2 1 1 0 0 0 0 0 0 0 0 0 0 0 1 2 2 2 2 2 1 0 0 0 0 0
24 21 15 10 7 6 4 1 0 0 0 0 0 1 2 3 3 1 1 1 1 0 0 0 0 0 0 0 0 0 0 1 3 3 3 3 3 2 1 0 0 0 0
Wind_Speed
2 2 2 3 3 3 3 4 3 3 3 3 3 4 4 4 3 3 2 7 7 7 7 9 9 9 9 8 9 9 9 9 8 7 7 7 7 7 7 6 6 6 6
3 3 3 3 3 3 3 4 4 4 3 3 4 4 4 3 3 3 2 3 5 6 6 8 9 9 9 9 8 8 8 8 8 8 7 7 7 7 6 6 6 6 6
3 3 3 3 3 3 4 4 4 3 3 3 3 3 3 3 3 3 2 1 2 4 5 6 7 8 8 9 9 8 8 7 8 8 8 7 7 6 6 6 6 5 6
4 3 3 3 3 3 3 3 3 3 3 3 2 2 2 2 2 2 2 1 1 1 3 5 5 6 7 8 8 8 8 8 8 7 7 7 7 6 6 6 5 4 5
4 4 3 3 3 3 3 3 3 3 3 3 2 2 1 2 2 2 2 2 2 2 1 3 4 4 5 7 8 8 8 7 7 7 6 6 6 5 5 6 6 5 4
4 4 3 3 4 3 3 3 3 3 3 3 3 2 1 1 1 1 2 1 1 2 1 1 1 2 3 3 4 6 7 6 6 6 6 6 6 5 5 7 6 5 5
4 4 4 3 3 3 3 3 3 4 2 3 3 2 2 1 1 0 0 1 0 1 1 1 1 1 1 2 2 4 5 5 5 5 4 5 5 4 5 5 5 5 4
3 4 4 3 3 3 3 3 3 3 2 2 3 2 1 2 2 1 1 1 0 1 1 2 2 1 1 1 1 2 3 4 4 4 4 4 3 3 3 4 4 3 3
3 3 3 3 3 3 2 2 3 4 2 1 2 3 3 2 1 2 1 1 1 1 0 1 2 1 1 1 0 1 3 3 3 3 3 3 3 2 2 3 3 3 2
2 3 3 3 2 2 2 2 2 3 3 2 0 1 2 4 3 0 2 1 1 1 1 1 1 1 1 1 2 3 4 4 4 3 4 4 3 3 3 3 3 3 2
2 3 3 3 2 1 2 2 2 2 2 2 1 1 1 1 2 3 1 1 2 1 1 1 1 1 1 1 1 3 5 4 4 4 4 3 3 3 3 3 3 2 2
1 2 3 2 2 2 2 2 2 2 1 2 1 1 2 2 2 2 2 1 0 1 1 1 1 1 1 1 3 6 6 5 5 5 4 4 3 3 3 3 3 2 2
1 1 2 2 1 2 2 2 2 1 1 2 1 1 1 1 2 2 3 2 1 0 1 1 0 1 1 1 2 7 6 6 6 5 5 5 4 4 4 3 3 3 3
2 2 2 2 2 2 2 2 2 1 1 1 1 1 1 1 1 3 3 3 2 0 1 1 1 1 1 1 3 5 4 6 6 5 5 5 5 5 5 5 5 4 4
2 2 3 3 2 2 2 2 2 1 1 1 0 1 1 0 1 1 3 4 4 2 1 1 0 0 1 1 3 2 3 5 6 5 4 5 5 5 6 5 5 5 5
3 3 3 3 3 3 3 2 2 2 2 1 1 2 1 0 0 1 2 2 2 4 2 1 0 0 1 2 3 2 3 6 5 5 4 4 4 5 5 5 5 5 5
4 4 4 3 3 3 2 3 2 2 2 2 2 2 1 1 1 1 1 2 2 3 3 0 1 1 2 2 2 2 2 2 2 4 4 4 4 4 4 4 4 4 4
4 4 4 4 3 3 2 3 2 2 2 2 1 2 1 1 1 1 1 2 2 2 4 4 1 1 2 1 2 2 2 2 1 3 3 3 3 3 3 3 3 3 3
4 4 4 4 3 3 2 2 2 2 2 1 1 1 0 1 1 1 1 2 2 2 3 4 2 1 1 1 2 2 2 1 1 2 2 2 3 2 2 2 3 3 2
5 4 4 4 3 3 3 2 3 2 2 2 1 1 1 2 2 1 2 1 2 3 3 4 3 1 1 0 2 1 1 1 0 0 1 1 2 2 2 2 2 2 2
6 5 4 3 3 3 3 3 3 3 3 2 2 2 2 3 3 2 2 2 3 3 3 3 2 1 1 1 1 1 1 0 1 0 1 0 0 0 1 2 2 2 2
5 5 4 4 3 2 4 5 4 3 3 2 1 1 2 2 3 3 4 4 4 5 4 3 2 2 2 2 2 2 2 1 1 1 1 1 0 1 2 2 3 3 3
5 5 4 4 3 3 5 5 6 4 3 2 2 1 1 2 2 2 3 4 3 3 4 4 4 4 4 4 3 3 2 2 2 2 2 1 1 2 2 2 4 4 5
5 5 4 4 3 3 5 5 6 4 3 2 2 2 2 1 1 2 3 3 2 1 1 2 3 3 3 4 4 4 4 2 0 0 2 1 1 1 2 1 3 4 4
5 5 5 5 4 3 5 6 5 3 2 1 1 1 2 1 1 4 4 3 2 1 1 2 2 2 3 3 4 4 3 2 0 1 1 1 1 1 1 1 2 4 4
5 5 4 4 5 4 4 6 6 3 2 1 1 0 1 2 2 4 3 3 2 1 1 1 2 2 1 1 2 4 4 3 2 1 1 2 1 1 1 2 1 1 2
Wind_Direction
145 154 151 146 145 146 149 148 148 137 133 136 143 142 138 137 141 151 170 183 185 189 193 192 191 191 186 187 188 190 193 196 194 193 196 196 195 199 203 209 211 215 217
131 136 135 133 140 143 143 140 139 134 129 122 126 132 136 138 144 146 162 187 187 190 195 194 191 190 188 185 186 188 194 198 195 195 199 201 203 204 211 215 220 226 225
121 122 121 123 135 133 127 124 123 118 115 110 116 125 132 147 149 145 147 168 206 201 191 194 195 195 194 192 193 195 199 203 201 201 204 206 209 210 216 221 224 225 225
115 114 114 121 130 126 123 126 128 121 116 114 118 132 133 142 147 152 147 169 210 214 205 201 200 197 200 201 201 202 204 204 202 203 203 205 210 214 216 218 218 221 224
105 112 114 120 120 118 120 138 135 139 135 130 130 125 128 146 164 168 169 191 207 210 211 213 203 192 205 210 209 206 202 202 198 201 205 208 210 212 211 213 216 221 225
99 103 108 113 115 119 119 120 129 127 138 142 127 109 116 161 166 163 193 197 202 200 190 209 214 195 192 193 194 203 202 200 200 205 207 208 212 217 217 220 220 221 221
102 102 108 109 114 121 130 130 125 116 116 120 103 70 35 44 78 127 132 119 122 175 148 148 145 142 172 172 188 194 193 192 190 194 200 201 206 212 216 220 218 215 213
101 109 109 119 120 119 118 126 125 119 140 149 130 111 49 10 6 22 34 75 39 43 127 142 122 139 162 166 133 172 186 191 187 181 185 182 185 189 197 200 193 189 196
97 104 112 117 113 124 138 142 141 138 148 176 147 141 144 188 317 351 359 42 29 62 124 109 124 140 153 124 136 122 133 139 155 167 161 153 146 142 152 151 151 134 131
101 106 111 111 108 122 137 160 150 150 146 164 193 154 160 156 148 159 338 350 9 44 63 105 99 100 112 126 108 105 109 112 116 125 125 124 125 127 123 131 137 132 134
91 106 111 109 115 128 135 125 121 129 145 156 166 150 110 110 134 150 197 317 3 1 55 114 125 117 122 140 138 117 111 104 102 105 109 112 112 116 113 116 124 113 100
95 102 116 121 128 133 128 132 124 121 130 140 152 148 151 156 170 155 168 182 241 327 9 38 112 126 125 125 130 119 115 111 104 96 92 92 99 108 104 96 96 85 76
128 136 128 130 131 133 135 130 118 126 141 147 159 173 168 180 167 150 142 148 145 316 6 2 41 119 132 123 129 125 122 117 112 105 98 94 96 97 98 96 96 88 71
165 160 140 134 128 123 120 118 116 138 128 144 158 161 155 186 156 155 151 144 126 19 10 319 5 61 116 131 131 132 129 126 120 113 106 101 95 87 84 85 84 79 71
157 149 134 122 111 103 103 108 100 95 91 86 89 100 116 193 150 158 153 155 150 156 229 267 312 89 154 138 135 131 130 126 127 124 115 111 104 95 89 87 84 82 75
146 135 128 121 111 105 103 96 89 75 76 49 62 68 58 9 94 98 137 145 144 149 166 226 177 123 131 130 128 136 136 132 127 125 125 120 112 106 100 98 95 88 79
142 140 141 131 123 119 114 107 101 93 87 56 43 67 45 43 78 80 89 96 111 128 141 126 72 88 82 90 93 108 122 114 114 120 119 118 123 123 117 111 103 96 87
144 143 140 134 136 131 122 122 124 109 105 89 53 60 29 63 71 93 106 107 121 132 141 143 114 90 102 119 104 103 112 113 116 109 127 133 135 133 131 121 114 113 109
141 137 132 135 139 136 131 131 130 122 118 120 108 102 77 96 78 87 110 119 126 125 129 137 136 110 105 121 95 90 96 75 113 120 139 159 160 148 142 140 140 139 134
143 141 138 139 138 132 128 126 119 114 105 95 93 104 112 121 136 125 107 118 123 117 121 127 131 125 111 114 113 113 76 15 56 114 86 138 161 171 186 175 159 150 154
151 147 139 134 132 132 141 137 131 124 112 94 68 69 88 100 107 120 122 133 131 130 131 132 142 132 147 153 174 173 159 268 324 342 57 13 54 334 268 230 203 194 190
150 141 142 138 135 148 143 142 136 125 118 119 105 61 62 67 84 90 107 123 136 145 150 148 158 168 195 190 168 161 152 142 263 269 142 274 178 256 264 243 225 217 214
153 147 146 139 145 153 148 146 144 135 128 131 134 123 81 65 81 92 86 89 99 131 152 158 164 190 190 191 171 173 182 183 209 209 143 243 254 252 262 246 227 222 218
158 157 157 157 152 162 156 151 146 134 124 129 139 146 132 88 94 118 105 82 69 65 179 166 178 199 196 187 178 177 178 165 174 220 140 188 251 253 271 268 239 220 222
160 163 161 161 162 182 173 162 147 131 127 133 122 126 135 133 119 123 115 108 72 3 46 111 157 172 170 167 156 135 133 128 174 274 199 158 223 255 279 276 261 236 233
167 163 163 170 172 184 182 169 157 144 141 152 127 149 155 151 142 140 139 137 140 259 48 40 34 27 58 112 138 160 167 157 163 239 235 157 194 139 306 289 280 275 261